Biloxi, MS

7:19 AM CDT on April 29, 2017 (GMT -0500)
Keesler Air Force Base

Weather History for KBIX - October, 2012

Change the Weather History Date:

Wednesday, October 3, 2012

  Actual Average Record
Temperature  
Mean Temperature 72 °F -  
Max Temperature 80 °F 83 °F 91 °F (1999)
Min Temperature 64 °F 62 °F 48 °F (1974)
Cooling Degree Days 7    
Growing Degree Days 22 (Base 50)    
Moisture  
Dew Point 63 °F    
Average Humidity 74    
Maximum Humidity 96    
Minimum Humidity 48    
Precipitation  
Precipitation 0.00 in - - ()
Sea Level Pressure  
Sea Level Pressure 30.08 in    
Wind  
Wind Speed 5 mph (ESE)    
Max Wind Speed 13 mph    
Max Gust Speed -    
Visibility 10 miles    
Events      
Averages and records for this station are not official NWS values.
T = Trace of Precipitation, MM = Missing Value Source: NWS Daily Summary

Daily Weather History Graph

Daily Weather History Graph

Search for Another Location

Airport or City:

Trip Planner

Search our weather history database for the weather conditions in past years. The results will help you decide how hot, cold, wet, or windy it might be!

Date:

Astronomy

Oct. 03, 2012 Rise Set
Actual Time 6:50 AM CDT 6:37 PM CDT
Civil Twilight 6:26 AM CDT 7:01 PM CDT
Nautical Twilight 5:58 AM CDT 7:29 PM CDT
Astronomical Twilight 5:30 AM CDT 7:57 PM CDT
Moon 8:47 PM CDT (10/3) 9:57 AM CDT (10/3)
Length of Visible Light 12h 35m
Length of Day
11h 47m
Waning Gibbous, 88% of the Moon is Illuminated
Oct 3
Waning Gibbous
Oct 8
Last Quarter
Oct 15
New
Oct 21
First Quarter
Oct 29
Full

Hourly Weather History & Observations

Time (CDT) Temp. Heat Index Dew Point Humidity Pressure Visibility Wind Dir Wind Speed Gust Speed Precip Events Conditions
12:55 AM 67.3 °F - 63.7 °F 88% 30.01 in 10.0 mi Calm Calm - N/A   Clear
1:55 AM 66.7 °F - 63.1 °F 88% 30.01 in 10.0 mi Calm Calm - N/A   Mostly Cloudy
2:55 AM 65.1 °F - 59.7 °F 83% 30.01 in 10.0 mi NE 3.5 mph - N/A   Mostly Cloudy
3:55 AM 64.0 °F - 60.3 °F 87% 30.01 in 10.0 mi NE 5.8 mph - N/A   Clear
4:55 AM 65.3 °F - 64.2 °F 96% 30.02 in 10.0 mi East 4.6 mph - N/A   Clear
5:55 AM 64.0 °F - 61.9 °F 93% 30.05 in 10.0 mi NE 3.5 mph - N/A   Clear
6:55 AM 65.3 °F - 63.1 °F 93% 30.06 in 10.0 mi East 3.5 mph - N/A   Clear
7:55 AM 67.1 °F - 65.5 °F 95% 30.07 in 10.0 mi ENE 4.6 mph - N/A   Clear
8:55 AM 71.1 °F - 64.0 °F 78% 30.09 in 10.0 mi East 5.8 mph - N/A   Clear
9:55 AM 75.2 °F - 65.3 °F 71% 30.10 in 10.0 mi East 6.9 mph - N/A   Clear
10:55 AM 77.7 °F - 64.6 °F 64% 30.11 in 10.0 mi SSE 6.9 mph - N/A   Clear
11:55 AM 79.2 °F - 64.8 °F 61% 30.11 in 10.0 mi SSE 9.2 mph - N/A   Clear
12:55 PM 80.6 °F 82.3 °F 64.4 °F 58% 30.09 in 10.0 mi SSE 12.7 mph - N/A   Clear
1:55 PM 79.7 °F - 65.3 °F 61% 30.08 in 10.0 mi SSE 9.2 mph - N/A   Clear
2:55 PM 80.1 °F 80.7 °F 59.0 °F 48% 30.07 in 10.0 mi South 11.5 mph - N/A   Clear
3:55 PM 79.9 °F - 63.3 °F 57% 30.07 in 10.0 mi SSE 9.2 mph - N/A   Clear
4:55 PM 79.0 °F - 63.3 °F 59% 30.07 in 10.0 mi SSE 10.4 mph - N/A   Clear
5:55 PM 77.4 °F - 64.8 °F 65% 30.08 in 10.0 mi SSE 9.2 mph - N/A   Clear
6:55 PM 75.4 °F - 64.9 °F 70% 30.10 in 10.0 mi Variable 5.8 mph - N/A   Clear
7:55 PM 74.7 °F - 64.0 °F 69% 30.10 in 10.0 mi SE 4.6 mph - N/A   Clear
8:55 PM 74.1 °F - 63.7 °F 70% 30.12 in 10.0 mi East 4.6 mph - N/A   Clear
9:55 PM 73.2 °F - 62.6 °F 69% 30.13 in 10.0 mi SE 3.5 mph - N/A   Clear
10:55 PM 69.6 °F - 61.7 °F 76% 30.14 in 10.0 mi NE 4.6 mph - N/A   Clear
11:55 PM 67.8 °F - 62.6 °F 83% 30.14 in 10.0 mi ENE 5.8 mph - N/A   Clear